Weather History for Rome, NY

Change the Weather History Date:

Friday, November 16, 2012

  Actual Average Record
Temperature  
Mean Temperature 34 °F -  
Max Temperature 46 °F 49 °F 70 °F (1990)
Min Temperature 21 °F 31 °F 20 °F (1980)
Degree Days  
Heating Degree Days 32    
Moisture  
Dew Point 24 °F    
Average Humidity 78    
Maximum Humidity 92    
Minimum Humidity 46    
Precipitation  
Precipitation 0.00 in - - ()
Sea Level Pressure  
Sea Level Pressure 30.44 in    
Wind  
Wind Speed 1 mph (WNW)    
Max Wind Speed 7 mph    
Max Gust Speed -    
Visibility 10 miles    
Events      
Averages and records for this station are not official NWS values.
T = Trace of Precipitation, MM = Missing Value Source: NWS Daily Summary

Daily Weather History Graph

Daily Weather History Graph

Search for Another Location

Airport:

Trip Planner

Search our weather history database for the weather conditions in past years. The results will help you decide how hot, cold, wet, or windy it might be!

Date:

Astronomy

Nov. 16, 2012 Rise Set
Actual Time 6:56 AM EST 4:36 PM EST
Civil Twilight 6:25 AM EST 5:06 PM EST
Nautical Twilight 5:51 AM EST 5:41 PM EST
Astronomical Twilight 5:17 AM EST 6:15 PM EST
Moon 9:50 AM EST 7:31 PM EST
Length of Visible Light 10h 41m
Length of Day
9h 39m
Waxing Crescent, 11% of the Moon is Illuminated
Nov 16
Waxing Crescent
Nov 20
First Quarter
Nov 28
Full
Dec 6
Last Quarter
Dec 13
New

Hourly Weather History & Observations

Time (EST) Temp. Windchill Dew Point Humidity Pressure Visibility Wind Dir Wind Speed Gust Speed Precip Events Conditions
12:53 AM 23.0 °F - 21.0 °F 92% 30.37 in 10.0 mi Calm Calm - N/A   Clear
1:53 AM 24.1 °F - 21.0 °F 88% 30.37 in 10.0 mi Calm Calm - N/A   Clear
2:53 AM 21.9 °F - 19.0 °F 89% 30.37 in 10.0 mi Calm Calm - N/A   Clear
3:53 AM 21.9 °F - 19.9 °F 92% 30.38 in 10.0 mi Calm Calm - N/A   Clear
4:53 AM 21.9 °F - 19.0 °F 89% 30.39 in 10.0 mi Calm Calm - N/A   Clear
5:53 AM 21.9 °F - 19.0 °F 89% 30.40 in 10.0 mi Calm Calm - N/A   Clear
6:53 AM 21.0 °F - 18.0 °F 88% 30.41 in 10.0 mi Calm Calm - N/A   Clear
7:53 AM 23.0 °F - 21.0 °F 92% 30.43 in 10.0 mi Calm Calm - N/A   Clear
8:53 AM 26.1 °F - 21.9 °F 84% 30.43 in 10.0 mi Calm Calm - N/A   Clear
9:53 AM 30.0 °F - 27.0 °F 88% 30.44 in 10.0 mi Calm Calm - N/A   Clear
10:53 AM 34.0 °F 28.8 °F 27.0 °F 75% 30.44 in 10.0 mi West 5.8 mph - N/A   Clear
11:53 AM 39.0 °F 34.8 °F 26.1 °F 60% 30.42 in 10.0 mi WNW 5.8 mph - N/A   Clear
12:53 PM 43.0 °F 38.8 °F 25.0 °F 49% 30.41 in 10.0 mi WNW 6.9 mph - N/A   Clear
1:53 PM 45.0 °F 42.6 °F 25.0 °F 46% 30.40 in 10.0 mi Variable 4.6 mph - N/A   Clear
2:53 PM 46.0 °F 43.1 °F 26.1 °F 46% 30.40 in 10.0 mi WNW 5.8 mph - N/A   Clear
3:53 PM 44.1 °F 40.1 °F 27.0 °F 51% 30.43 in 10.0 mi West 6.9 mph - N/A   Clear
4:53 PM 39.9 °F - 27.0 °F 60% 30.44 in 10.0 mi Calm Calm - N/A   Clear
5:53 PM 36.0 °F 33.3 °F 27.0 °F 70% 30.46 in 10.0 mi NW 3.5 mph - N/A   Clear
6:53 PM 30.0 °F - 26.1 °F 85% 30.48 in 10.0 mi Calm Calm - N/A   Clear
7:53 PM 30.0 °F - 25.0 °F 82% 30.50 in 10.0 mi Calm Calm - N/A   Clear
8:53 PM 30.0 °F - 26.1 °F 85% 30.52 in 10.0 mi Calm Calm - N/A   Clear
9:53 PM 28.0 °F - 25.0 °F 88% 30.53 in 10.0 mi Calm Calm - N/A   Clear
10:53 PM 27.0 °F - 23.0 °F 85% 30.53 in 10.0 mi Calm Calm - N/A   Clear
11:53 PM 27.0 °F - 24.1 °F 89% 30.53 in 10.0 mi Calm Calm - N/A   Clear